Wetbulb
29.38 29.07 28.89 28.73 28.94 29.31 29.21 29.60 30.24 29.89 29.66 29.39 29.45 29.38 29.63 29.78 30.23 29.81 29.47 29.13 27.60 27.73 28.06 27.44 26.59 27.50 27.08 27.26 27.25 26.96 25.64 25.89 24.14 26.50 27.48 27.82 25.82 24.32 24.22 24.55 24.95 25.18 25.49
28.72 28.28 28.08 27.98 27.97 27.77 27.96 28.82 29.72 28.75 29.12 28.75 28.57 28.46 28.31 28.26 28.76 28.57 27.79 27.14 25.97 25.74 26.07 26.21 25.86 26.60 26.35 26.16 25.57 24.90 24.27 25.05 23.89 21.83 24.36 24.35 23.11 23.71 21.84 21.99 21.98 23.40 22.87
27.77 27.42 27.10 26.98 26.92 27.03 27.55 28.35 28.44 28.28 28.22 28.16 27.62 27.04 27.00 27.27 27.34 27.54 27.40 27.11 25.91 25.46 25.12 24.82 24.93 25.53 25.29 25.20 24.21 23.66 23.65 24.09 23.65 22.35 20.77 22.40 21.77 20.94 19.84 20.24 19.82 20.11 21.27
27.09 26.68 26.34 26.20 26.44 26.69 27.17 27.45 27.65 27.74 27.61 27.38 26.92 26.68 26.91 26.83 26.99 27.18 26.53 26.32 26.06 25.13 25.04 24.51 23.97 24.51 24.27 23.77 22.83 22.40 21.74 21.82 21.12 19.25 18.90 18.16 18.53 18.35 18.44 15.91 15.81 18.03 17.03
26.26 26.04 26.03 26.42 26.16 26.41 26.31 26.54 26.69 26.81 26.92 27.39 27.04 27.15 27.37 26.82 26.29 26.09 25.88 24.68 24.07 23.62 23.81 23.44 23.10 23.71 24.05 23.66 22.02 19.99 20.41 18.31 17.42 16.44 15.79 15.73 15.19 14.09 13.16 14.40 13.25 13.84 15.18
25.84 25.61 25.51 25.44 25.31 25.66 25.32 25.35 25.35 25.41 25.90 26.50 26.95 26.91 26.30 27.23 28.21 26.74 25.55 24.23 23.44 22.63 21.52 21.77 21.96 22.11 21.78 22.21 21.62 21.18 20.26 16.44 14.80 13.28 13.13 11.76 12.26 13.03 13.65 12.28 11.41 8.73 8.00
25.58 25.03 24.66 24.75 24.60 24.76 24.47 24.35 24.05 24.39 25.11 24.98 25.21 25.47 25.34 26.32 27.43 25.76 24.95 23.21 21.31 20.55 20.41 20.32 20.03 20.88 20.66 18.47 18.49 17.52 16.92 17.23 17.20 13.19 10.83 11.14 11.03 12.35 12.24 10.27 9.07 7.60 7.73
24.23 23.79 23.60 23.70 23.63 23.75 23.38 23.27 23.29 24.06 23.57 23.56 24.23 25.03 25.13 25.18 26.18 25.17 23.17 21.59 19.72 19.33 19.24 19.40 18.91 18.98 20.98 16.95 15.51 13.25 12.93 11.59 13.20 12.73 12.06 12.69 13.30 13.46 12.60 10.53 7.90 6.79 7.48
22.16 22.31 22.50 22.91 22.73 22.58 22.15 22.28 22.73 22.95 23.19 23.29 23.60 23.83 23.63 24.09 24.46 24.43 22.18 21.00 18.83 17.78 18.29 18.89 18.60 17.91 20.49 18.09 13.34 9.92 9.08 7.55 11.25 11.71 12.44 12.91 12.49 12.91 12.67 7.96 3.36 2.10 2.23
21.30 21.87 22.33 22.78 22.76 22.45 22.48 21.93 22.98 23.21 23.04 23.80 22.29 21.97 21.71 23.08 24.37 23.14 21.78 19.35 16.89 15.19 15.78 15.99 20.32 17.82 19.06 18.15 12.29 9.24 5.70 4.15 5.61 2.53 4.18 5.97 6.52 6.66 8.37 6.10 4.93 0.78 0.54
20.44 20.85 21.10 22.10 22.23 22.40 22.03 22.36 22.07 22.63 22.32 20.85 19.56 19.49 19.62 20.22 22.78 23.21 21.33 17.51 15.37 13.42 12.80 12.82 15.00 17.01 16.97 16.49 14.19 10.23 8.28 3.04 1.49 0.01 0.82 2.22 2.53 2.92 3.47 4.08 4.55 3.13 0.52
19.11 19.44 19.45 19.94 22.25 22.17 21.41 22.11 22.51 21.21 18.63 17.41 16.73 16.31 17.09 17.91 21.48 22.28 19.99 17.13 15.31 11.72 11.27 11.55 13.32 14.87 13.50 14.42 11.92 9.85 7.28 1.75 -1.33 -2.73 -2.84 -1.78 -1.62 -0.83 0.84 1.93 2.76 2.83 3.72
16.47 16.14 17.06 18.81 21.02 21.46 21.50 21.22 19.69 19.45 17.42 15.63 15.33 14.08 13.90 15.27 17.52 20.50 20.76 17.37 14.87 10.75 11.97 13.81 13.25 11.26 7.93 5.49 9.44 6.51 -1.09 -2.54 -4.35 -6.26 -5.76 -4.31 -3.34 -1.59 -0.75 -0.90 0.02 0.19 0.81
15.56 15.62 16.80 18.83 20.07 21.10 22.63 21.51 19.70 18.07 17.00 15.84 13.84 11.68 11.32 12.07 12.72 13.34 12.88 13.70 14.34 8.52 8.15 6.51 8.85 6.98 6.02 -0.18 -2.39 -1.92 -3.28 -5.15 -6.77 -7.62 -7.18 -6.01 -4.01 -4.20 -4.87 -3.90 -5.13 -4.07 -5.19
15.25 15.97 18.39 19.19 19.49 20.23 20.59 20.16 19.47 19.47 18.64 14.50 11.92 10.34 8.75 8.87 10.74 13.53 9.28 5.59 2.23 2.92 -6.80 -5.11 -4.02 -3.45 -3.78 -4.85 -6.49 -7.54 -6.24 -7.16 -8.29 -9.06 -9.66 -9.84 -8.20 -7.99 -7.29 -6.35 -7.08 -7.57 -8.26
15.48 16.11 17.74 18.15 18.50 18.28 17.71 18.56 22.27 20.95 22.63 21.04 18.16 12.08 9.24 15.01 18.32 19.24 16.81 14.66 13.76 8.02 -6.39 -5.66 -6.52 -7.64 -5.87 -7.11 -8.26 -7.98 -8.54 -9.84 -9.90 -10.88 -11.51 -11.84 -11.73 -12.47 -11.43 -9.17 -8.36 -9.38 -9.95
17.27 17.51 18.21 17.70 17.07 16.10 15.78 15.71 14.94 20.17 22.35 21.04 20.17 18.67 17.44 17.99 20.06 20.08 19.77 16.69 15.10 6.05 -5.25 -9.70 -7.29 -8.44 -7.83 -8.69 -10.05 -11.11 -9.55 -10.22 -16.57 -13.63 -13.27 -14.13 -14.81 -14.33 -14.18 -12.65 -11.12 -10.99 -10.39
18.55 18.42 17.55 17.01 16.24 15.30 14.68 14.48 14.63 13.33 12.08 12.94 16.63 17.90 18.84 19.03 19.27 18.89 18.29 12.15 3.38 -7.73 -10.90 -9.25 -8.83 -10.78 -11.17 -11.00 -10.97 -12.22 -12.26 -13.40 -13.84 -13.64 -14.78 -16.57 -19.20 -18.87 -16.00 -13.94 -13.46 -15.43 -13.07
17.62 16.89 16.67 16.01 15.56 14.74 13.25 10.38 7.39 6.89 7.52 1.11 -2.11 7.08 -0.18 17.92 18.40 18.10 17.38 0.15 -1.76 -5.88 -11.34 -13.34 -12.94 -12.59 -13.06 -13.65 -13.35 -15.31 -17.21 -15.90 -16.35 -17.93 -17.06 -19.55 -19.32 -19.90 -16.37 -15.69 -14.58 -15.80 -14.51
16.52 15.82 14.28 12.83 10.34 8.92 7.24 4.41 1.16 2.65 1.22 -0.51 -1.07 1.12 -5.45 -0.36 0.63 0.21 -6.99 -7.18 -7.58 -7.10 -10.08 -11.41 -12.46 -14.23 -14.56 -15.02 -15.26 -17.69 -17.85 -19.19 -18.59 -18.97 -17.40 -18.18 -18.51 -20.87 -16.83 -17.86 -16.14 -16.10 -14.07
12.86 11.61 10.92 8.21 7.74 5.31 3.07 2.76 2.21 -0.73 -0.22 -2.57 -0.87 -5.34 2.84 -0.66 -0.02 -2.68 -5.09 -10.48 -8.20 -8.48 -9.22 -11.58 -12.53 -14.57 -15.95 -16.84 -18.78 -19.88 -20.35 -15.80 -19.01 -19.94 -19.39 -18.47 -20.70 -19.38 -19.03 -18.87 -17.81 -16.39 -16.02
8.67 6.73 6.38 6.23 0.82 0.33 0.78 0.28 -0.93 -1.54 -4.00 -4.10 -7.56 -9.08 12.44 -0.61 -5.80 -5.90 -6.81 -6.93 -7.46 -8.20 -8.72 -10.50 -11.88 -13.55 -14.37 -17.00 -17.54 -17.82 -18.23 -17.29 -17.34 -19.51 -19.12 -20.52 -21.05 -19.47 -20.56 -18.65 -18.21 -16.05 -14.74
3.99 1.06 -2.08 -3.18 -3.10 -5.54 -6.61 -6.87 -5.57 -5.42 -6.84 -7.32 -8.52 -7.62 -8.10 -5.00 -4.46 -5.09 -5.42 -5.74 -8.55 -9.86 -12.49 -15.77 -13.87 -14.75 -16.43 -18.16 -16.71 -14.14 -14.32 -14.54 -14.37 -17.05 -17.35 -18.04 -18.67 -17.51 -19.33 -18.23 -17.20 -17.31 -14.20
1.09 -0.04 -1.68 -5.45 -7.05 -6.14 -5.90 -8.96 -9.32 -9.00 -8.03 -8.56 -10.08 -10.43 -7.57 -7.56 -8.12 -7.03 -7.33 -7.79 -10.52 -12.19 -14.32 -15.20 -15.35 -14.31 -14.38 -16.24 -17.80 -18.64 -18.21 -16.80 -19.41 -19.32 -20.02 -19.15 -18.24 -18.16 -18.69 -19.34 -17.24 -15.83 -15.29
-0.20 -1.42 -2.32 -5.51 -5.90 -6.43 -7.46 -8.44 -8.91 -9.24 -8.90 -8.31 -10.07 -10.03 -9.36 -8.82 -9.43 -9.70 -9.35 -9.78 -11.05 -11.82 -12.01 -14.39 -14.06 -13.67 -14.36 -15.23 -15.87 -18.38 -20.05 -12.87 -15.13 -21.50 -23.56 -22.49 -20.81 -20.28 -20.86 -18.96 -16.44 -14.11 -13.04
-1.75 -1.93 -2.14 -5.19 -6.83 -7.10 -6.25 -7.61 -8.18 -8.24 -8.94 -8.20 -8.09 -8.50 -7.30 -8.17 -7.35 -6.88 -7.67 -8.99 -9.73 -10.01 -10.31 -10.73 -11.69 -12.77 -13.20 -13.19 -13.80 -13.54 -14.53 -12.70 -15.17 -15.47 -17.94 -19.55 -20.12 -18.47 -17.66 -16.64 -15.49 -14.32 -11.15
MSLP
1026.33 1026.60 1026.89 1027.09 1027.27 1027.43 1027.44 1027.44 1027.54 1027.85 1028.10 1028.28 1028.24 1028.38 1028.41 1028.32 1028.32 1028.34 1028.68 1028.94 1029.13 1029.44 1029.69 1029.73 1029.89 1029.98 1029.90 1029.82 1029.89 1030.05 1030.11 1029.79 1029.54 1029.30 1029.46 1029.30 1029.16 1029.08 1028.68 1028.44 1027.88 1027.14 1026.25
1026.14 1026.57 1026.97 1027.20 1027.35 1027.48 1027.58 1027.68 1027.87 1028.22 1028.59 1028.68 1028.77 1028.82 1028.87 1028.89 1028.98 1028.95 1029.10 1029.39 1029.64 1029.95 1030.16 1030.11 1030.17 1030.19 1030.24 1030.42 1030.36 1030.47 1030.54 1030.33 1030.19 1029.72 1029.72 1029.69 1029.66 1029.54 1029.34 1028.72 1028.14 1027.58 1026.87
1026.07 1026.50 1026.89 1027.19 1027.43 1027.65 1027.96 1028.20 1028.41 1028.64 1028.80 1028.91 1028.94 1028.91 1029.10 1029.22 1029.28 1029.38 1029.54 1029.79 1030.15 1030.49 1030.69 1030.66 1030.58 1030.56 1030.46 1030.54 1030.61 1030.77 1030.96 1030.68 1030.65 1030.41 1030.27 1030.33 1030.31 1030.25 1029.63 1029.24 1028.83 1027.96 1027.24
1026.10 1026.55 1026.80 1027.07 1027.35 1027.76 1028.06 1028.31 1028.49 1028.72 1028.97 1029.18 1029.33 1029.37 1029.51 1029.59 1029.63 1029.72 1029.94 1030.26 1030.59 1030.84 1031.02 1031.21 1031.23 1031.11 1031.08 1030.93 1030.98 1031.09 1031.14 1030.92 1030.80 1030.89 1030.90 1030.82 1030.79 1030.58 1030.26 1029.43 1028.62 1028.15 1027.29
1025.81 1026.17 1026.53 1027.07 1027.55 1027.77 1027.96 1028.27 1028.63 1028.96 1029.26 1029.51 1029.62 1029.75 1029.92 1029.99 1030.13 1030.21 1030.40 1030.72 1030.92 1031.09 1031.01 1031.20 1031.84 1031.88 1031.77 1031.68 1031.57 1031.70 1031.58 1031.62 1031.66 1031.58 1031.52 1031.27 1031.02 1030.89 1030.46 1030.13 1029.53 1028.78 1027.39
1025.45 1026.09 1026.74 1027.40 1027.75 1027.92 1028.12 1028.48 1028.93 1029.30 1029.54 1029.66 1029.87 1030.02 1030.19 1030.27 1030.43 1030.68 1030.85 1030.92 1031.22 1031.52 1031.60 1031.64 1032.01 1032.24 1032.31 1032.18 1032.32 1032.27 1032.32 1032.37 1032.46 1032.52 1032.34 1031.99 1031.79 1031.81 1031.46 1031.02 1030.42 1029.64 1028.00
1025.03 1025.91 1026.54 1027.03 1027.45 1027.84 1028.21 1028.59 1028.90 1029.30 1029.61 1029.84 1030.15 1030.29 1030.37 1030.42 1030.61 1031.01 1031.17 1031.36 1031.60 1031.87 1032.06 1032.20 1032.39 1032.47 1032.69 1032.77 1033.05 1033.30 1033.51 1033.41 1033.14 1033.45 1033.15 1032.85 1032.65 1032.56 1032.04 1031.54 1031.27 1030.99 1029.96
1024.78 1025.22 1026.00 1026.73 1027.31 1027.72 1028.15 1028.50 1028.97 1029.48 1029.82 1030.12 1030.37 1030.53 1030.64 1030.78 1030.84 1031.11 1031.56 1031.80 1032.13 1032.45 1032.60 1032.64 1032.95 1032.80 1032.71 1033.10 1033.55 1033.94 1034.08 1034.32 1033.89 1033.96 1033.83 1033.51 1033.25 1032.96 1032.60 1032.34 1032.11 1031.48 1030.34
1024.57 1024.84 1025.38 1026.06 1026.85 1027.51 1027.99 1028.46 1029.00 1029.52 1030.03 1030.36 1030.59 1030.91 1031.07 1031.02 1031.08 1031.06 1031.55 1031.90 1032.46 1032.83 1033.07 1033.21 1033.23 1033.35 1033.11 1033.50 1033.98 1034.37 1034.68 1034.93 1034.67 1034.62 1034.34 1034.05 1033.88 1033.47 1032.97 1032.71 1032.27 1031.47 1030.17
1024.14 1024.77 1025.16 1025.66 1026.34 1026.97 1027.62 1028.34 1028.85 1029.43 1030.14 1030.65 1031.09 1031.32 1031.33 1031.18 1031.18 1031.13 1031.78 1032.27 1032.73 1033.16 1033.48 1033.72 1033.19 1033.61 1033.43 1033.59 1034.31 1034.59 1034.83 1035.49 1035.33 1035.48 1035.15 1034.74 1034.57 1034.22 1033.77 1033.46 1032.92 1032.30 1031.77
1023.78 1024.47 1025.22 1025.59 1026.12 1026.63 1027.30 1028.02 1028.68 1029.20 1030.01 1030.77 1031.37 1031.58 1031.65 1031.74 1031.27 1031.21 1031.95 1032.50 1032.85 1033.36 1033.85 1034.11 1034.12 1034.06 1033.92 1033.95 1034.42 1034.93 1035.19 1036.18 1036.10 1035.89 1035.47 1035.18 1035.01 1034.72 1034.35 1033.99 1033.58 1033.02 1032.40
1023.61 1024.36 1024.94 1025.47 1025.89 1026.50 1027.07 1027.85 1028.56 1029.15 1029.98 1030.82 1031.28 1031.80 1032.14 1032.21 1031.51 1031.47 1032.32 1032.84 1033.04 1033.59 1034.18 1034.58 1034.57 1034.47 1034.62 1034.47 1035.06 1035.55 1035.88 1036.39 1036.56 1036.33 1036.07 1035.77 1035.65 1035.43 1034.93 1034.41 1033.87 1033.42 1032.88
1023.79 1024.44 1025.04 1025.43 1025.78 1026.28 1026.91 1027.75 1028.42 1029.23 1029.78 1030.63 1031.17 1031.83 1032.42 1032.55 1032.16 1032.03 1032.24 1033.04 1033.34 1034.05 1034.34 1034.31 1034.66 1035.20 1035.78 1036.14 1035.65 1036.07 1036.97 1037.07 1037.08 1037.02 1036.88 1036.60 1036.43 1036.14 1035.65 1034.93 1034.24 1033.68 1032.78
1023.72 1024.32 1024.91 1025.39 1025.83 1026.36 1026.87 1027.42 1027.83 1028.66 1029.34 1030.35 1031.28 1031.91 1032.32 1032.75 1032.81 1033.08 1033.42 1033.63 1033.88 1034.73 1035.10 1035.45 1035.29 1035.84 1036.19 1037.09 1037.20 1037.30 1037.51 1037.74 1037.87 1037.76 1037.50 1037.21 1036.79 1036.34 1035.92 1035.54 1034.77 1033.94 1033.19
1023.71 1024.17 1024.65 1025.13 1025.51 1025.92 1026.50 1026.91 1027.35 1027.91 1028.41 1029.58 1030.58 1031.43 1032.10 1032.67 1032.71 1032.94 1033.69 1034.45 1035.07 1035.36 1036.65 1036.84 1036.98 1037.02 1037.24 1037.53 1037.83 1038.07 1038.06 1038.12 1038.23 1038.20 1037.98 1037.72 1037.26 1036.75 1036.14 1035.75 1035.20 1034.48 1033.72
1022.95 1023.57 1024.10 1024.73 1025.34 1025.89 1026.45 1026.96 1027.23 1027.75 1028.10 1028.98 1029.94 1030.86 1032.02 1031.70 1031.98 1032.18 1032.93 1033.45 1033.73 1035.01 1036.64 1036.98 1037.21 1037.44 1037.34 1037.68 1037.96 1038.06 1038.16 1038.26 1038.43 1038.50 1038.32 1038.06 1037.69 1037.28 1036.61 1035.93 1035.40 1034.84 1034.00
1022.34 1022.70 1023.56 1024.31 1024.93 1025.62 1026.23 1026.83 1027.35 1027.72 1028.06 1028.67 1029.46 1030.22 1031.09 1031.19 1031.19 1031.48 1031.93 1032.63 1033.39 1034.92 1036.21 1037.12 1037.25 1037.46 1037.50 1037.73 1037.94 1038.14 1038.19 1038.39 1038.99 1038.62 1038.42 1038.17 1037.96 1037.54 1037.03 1036.25 1035.59 1034.95 1034.03
1021.76 1022.20 1022.97 1023.88 1024.62 1025.41 1026.18 1026.93 1027.49 1027.95 1028.56 1029.24 1029.64 1030.14 1030.59 1030.99 1031.05 1031.38 1031.82 1033.23 1034.20 1035.50 1036.27 1036.79 1037.00 1037.30 1037.53 1037.65 1037.71 1037.95 1038.19 1038.40 1038.42 1038.30 1038.19 1038.10 1038.02 1037.80 1037.08 1036.39 1035.81 1035.25 1034.30
1021.28 1022.03 1022.79 1023.70 1024.54 1025.29 1026.23 1027.25 1027.88 1028.57 1029.32 1030.25 1031.51 1031.47 1032.53 1030.85 1030.89 1031.26 1031.68 1033.60 1034.56 1035.40 1036.04 1036.59 1036.66 1036.95 1037.18 1037.22 1037.33 1037.63 1037.99 1038.31 1038.27 1038.00 1037.81 1037.81 1037.76 1037.67 1036.95 1036.44 1035.83 1035.19 1034.42
1021.11 1021.81 1022.69 1023.70 1024.76 1025.66 1026.63 1027.53 1028.38 1029.09 1029.84 1030.70 1031.45 1032.15 1032.92 1032.76 1032.46 1032.27 1033.03 1033.88 1034.59 1035.00 1035.44 1035.86 1036.11 1036.43 1036.63 1036.78 1036.95 1037.33 1037.56 1037.82 1037.79 1037.58 1037.37 1037.35 1037.30 1037.24 1036.74 1036.28 1035.68 1035.10 1034.20
1020.98 1021.90 1022.69 1023.83 1024.72 1025.60 1026.58 1027.55 1028.44 1029.27 1030.03 1030.84 1031.36 1031.79 1032.15 1032.41 1032.53 1032.77 1033.22 1033.76 1034.12 1034.44 1034.72 1035.15 1035.48 1035.89 1036.11 1036.39 1036.80 1036.93 1036.91 1036.94 1036.99 1036.96 1036.83 1036.72 1036.77 1036.75 1036.34 1035.98 1035.46 1034.75 1034.02
1021.02 1021.91 1022.80 1023.74 1024.82 1025.73 1026.55 1027.39 1028.31 1029.11 1029.88 1030.63 1031.35 1031.68 1031.65 1032.07 1032.27 1032.55 1032.86 1033.11 1033.40 1033.69 1033.89 1034.29 1034.54 1034.77 1034.92 1035.33 1035.56 1035.93 1035.85 1035.85 1035.96 1036.33 1036.09 1036.14 1036.08 1036.01 1035.80 1035.39 1034.89 1034.30 1033.45
1021.16 1022.08 1023.19 1024.12 1024.96 1025.98 1026.92 1027.67 1028.27 1028.94 1029.58 1030.29 1030.84 1031.28 1031.44 1031.36 1031.63 1031.97 1032.18 1032.29 1032.74 1033.04 1033.39 1033.88 1033.81 1033.91 1034.12 1034.40 1034.47 1034.33 1034.47 1034.38 1034.48 1034.92 1035.17 1035.26 1035.31 1035.28 1035.20 1034.82 1034.34 1033.80 1032.93
1021.22 1022.05 1023.02 1024.00 1024.97 1025.81 1026.60 1027.40 1028.07 1028.68 1029.22 1029.79 1030.31 1030.61 1030.76 1030.89 1031.14 1031.32 1031.46 1031.72 1032.15 1032.33 1032.54 1032.77 1032.91 1032.88 1032.98 1033.18 1033.33 1033.46 1033.56 1033.57 1033.92 1034.14 1034.48 1034.68 1034.55 1034.57 1034.44 1034.18 1033.70 1033.16 1032.59
1021.13 1021.98 1022.78 1023.62 1024.46 1025.20 1026.03 1026.73 1027.46 1028.16 1028.62 1028.97 1029.42 1029.79 1029.95 1030.19 1030.41 1030.52 1030.84 1031.01 1031.21 1031.43 1031.43 1031.66 1031.72 1031.71 1031.86 1032.06 1032.22 1032.35 1032.44 1032.52 1032.79 1033.23 1033.78 1034.11 1034.07 1034.01 1033.66 1033.37 1032.95 1032.36 1031.78
1020.95 1021.65 1022.35 1023.27 1023.97 1024.65 1025.34 1026.00 1026.60 1027.28 1027.67 1028.09 1028.45 1028.73 1028.91 1029.16 1029.29 1029.44 1029.68 1029.97 1030.14 1030.18 1030.22 1030.35 1030.45 1030.58 1030.70 1030.83 1030.94 1031.11 1031.33 1031.56 1031.87 1032.09 1032.49 1032.92 1033.14 1032.91 1032.77 1032.32 1032.00 1031.74 1031.03
Wind_Speed
4 4 4 4 4 4 4 4 5 5 5 6 6 6 7 7 7 9 9 9 10 9 8 9 9 8 6 6 6 5 5 4 2 2 5 9 10 12 13 12 12 12 12
5 5 5 4 4 4 4 4 5 6 5 6 6 7 7 8 7 8 9 8 9 9 7 8 8 6 8 8 6 6 5 4 2 4 7 7 8 10 13 13 12 11 12
5 5 5 5 4 4 4 4 5 6 6 6 6 7 7 7 8 8 8 9 9 8 8 8 8 8 8 6 7 5 5 4 4 4 5 6 7 9 11 10 11 12 11
6 5 6 5 5 5 5 5 6 6 7 7 6 6 6 6 7 7 8 8 8 8 8 9 8 9 9 8 7 7 6 5 6 5 5 6 5 9 7 9 11 9 12
7 6 6 6 6 6 6 6 6 6 6 6 7 6 5 5 4 6 7 8 8 8 8 8 9 10 13 12 7 8 9 6 5 5 6 6 7 10 11 10 11 11 13
7 6 6 6 6 6 7 7 7 7 7 7 6 6 6 5 8 8 7 7 8 7 7 7 7 9 11 13 14 14 12 8 8 6 6 8 9 10 10 11 10 11 8
8 7 8 7 7 7 7 7 8 8 7 7 7 7 7 6 8 9 9 8 8 7 7 6 6 6 9 8 11 12 12 14 14 7 8 8 9 11 11 12 11 10 10
7 9 8 8 8 7 7 7 7 6 7 7 7 7 7 6 7 10 9 8 8 8 7 7 6 8 10 8 7 7 7 8 10 7 7 7 8 9 10 9 10 11 11
8 9 10 10 9 9 8 8 6 7 7 6 7 7 7 7 8 8 6 6 7 7 8 8 7 7 11 11 7 7 6 8 9 13 11 10 12 14 13 7 8 9 6
9 9 9 10 10 10 9 9 6 7 7 6 7 6 6 6 9 8 6 4 6 5 5 5 9 8 10 13 8 7 7 7 7 8 7 8 10 11 14 9 7 8 7
7 7 8 9 10 9 9 7 8 8 8 7 7 5 5 3 6 9 7 4 4 5 4 4 4 9 9 11 11 7 7 5 7 5 5 6 7 8 8 8 8 7 7
8 8 9 9 8 8 10 8 9 9 9 8 7 5 3 1 7 9 10 8 9 6 5 4 3 9 9 10 7 9 10 7 4 5 5 6 6 7 8 9 9 8 7
8 7 7 8 7 8 10 10 9 9 8 7 6 6 4 2 2 8 10 8 9 6 4 6 8 9 9 7 9 9 8 4 4 4 5 5 5 6 8 7 8 10 9
9 8 8 9 8 8 7 7 8 8 7 7 6 5 4 4 4 3 4 5 8 6 7 5 6 7 8 6 4 6 4 4 4 3 3 4 5 5 5 6 5 8 5
8 8 8 7 8 8 7 7 7 6 9 8 6 6 7 5 4 8 7 4 4 7 6 2 2 1 2 3 3 2 2 3 3 3 3 4 4 5 5 6 4 5 5
11 9 8 8 7 7 7 6 10 11 13 13 15 11 2 9 12 13 11 9 11 11 3 1 1 0 0 1 1 1 0 2 2 2 3 3 4 5 6 6 5 5 6
10 10 8 8 8 8 7 7 8 9 13 12 15 16 14 10 11 10 12 7 8 6 2 2 2 3 2 2 2 1 1 0 1 2 3 3 3 4 4 5 6 5 7
10 13 9 8 8 8 8 7 7 9 9 7 10 12 14 13 11 10 10 7 4 2 1 3 4 4 3 3 2 2 1 2 2 2 2 2 2 2 3 5 6 5 7
10 8 8 7 7 8 7 7 5 6 7 4 2 3 4 12 11 12 10 3 3 3 3 4 4 4 4 4 3 3 3 3 2 2 2 2 2 2 4 4 6 7 8
9 12 10 8 7 7 7 7 6 6 6 5 4 4 3 2 1 3 2 3 3 3 3 5 4 4 5 5 4 3 3 3 3 3 3 3 3 3 5 5 5 6 7
8 8 11 7 7 7 8 8 7 6 7 6 5 4 11 4 6 4 4 5 5 5 5 5 5 5 5 4 4 4 4 4 3 4 3 3 2 3 3 5 5 6 6
7 7 7 8 7 7 7 7 7 7 6 7 4 4 17 6 4 5 6 6 6 6 4 5 5 5 5 6 6 5 5 5 4 4 4 3 3 4 4 5 5 5 6
8 8 7 6 6 7 5 5 6 6 6 6 5 5 4 4 5 6 6 6 5 5 4 5 5 5 5 5 5 6 6 6 5 4 4 4 4 4 3 4 5 5 6
8 9 9 7 7 7 7 7 6 7 6 6 6 5 6 5 6 7 6 5 5 5 5 5 6 7 5 5 5 5 6 5 3 5 6 4 5 5 4 4 5 5 7
8 8 8 8 8 8 7 7 7 6 7 6 6 5 5 5 6 6 6 5 5 5 6 6 6 8 9 10 8 9 9 11 8 7 4 5 6 6 5 4 5 6 7
7 8 7 7 6 7 7 7 7 7 8 7 6 6 6 6 7 6 6 6 6 6 7 5 7 10 9 8 9 10 9 11 9 10 7 6 6 6 5 6 7 5 8
Wind_Direction
157 137 127 113 107 102 97 95 96 90 82 81 80 79 74 74 77 87 85 84 84 81 75 75 72 64 63 64 63 58 47 37 338 321 327 341 352 353 351 350 351 344 338
162 151 145 133 124 115 106 103 106 100 90 89 89 86 80 77 79 88 92 90 90 89 86 79 68 60 58 52 50 50 41 51 9 323 319 348 346 353 345 345 345 341 333
157 149 153 148 137 120 119 115 111 110 101 96 97 94 94 97 97 93 96 100 96 91 83 77 66 58 56 56 53 42 26 22 7 341 337 354 341 354 339 345 343 335 327
163 163 162 159 148 145 136 133 128 121 113 106 105 108 105 102 100 104 103 101 103 95 85 73 59 50 48 42 46 39 23 18 17 5 347 341 350 349 337 346 339 341 324
168 168 169 158 156 149 141 134 127 120 116 115 107 93 96 101 94 101 108 109 105 100 94 83 60 50 48 46 48 39 29 23 11 359 2 351 359 352 355 341 332 331 317
168 173 153 155 157 152 143 141 134 126 116 107 105 100 85 85 94 104 110 109 97 94 88 76 72 53 53 51 53 48 50 33 24 9 3 6 360 350 342 341 338 344 340
168 162 164 161 159 155 148 147 146 142 132 123 116 109 97 92 99 98 102 98 95 90 76 72 67 49 56 54 52 50 49 38 42 24 9 8 345 346 338 335 339 331 311
170 164 161 161 159 153 153 154 145 144 139 135 125 113 110 98 104 108 100 103 97 91 81 75 70 49 55 55 57 48 45 38 32 25 15 359 355 346 346 338 332 317 300
177 172 166 162 160 161 165 159 146 141 141 138 118 117 111 105 105 114 114 115 108 103 84 57 73 52 46 55 58 46 40 35 18 18 16 13 10 2 7 349 352 350 336
182 182 170 164 165 168 161 158 152 145 142 136 128 106 86 90 104 106 117 120 124 113 93 63 63 64 51 60 57 44 38 21 8 8 13 14 10 2 10 14 355 352 347
159 155 163 165 165 161 151 151 150 143 133 128 126 122 104 70 103 102 103 119 131 123 111 89 36 66 50 56 58 48 34 37 14 14 8 9 8 5 1 360 357 349 338
153 158 162 160 159 158 154 150 153 141 133 137 138 132 115 87 108 107 104 113 120 116 108 94 63 74 55 59 52 55 45 46 28 21 14 10 5 358 349 345 342 341 324
147 156 159 153 153 156 158 158 146 148 146 154 162 156 155 106 72 116 119 105 109 108 123 115 85 74 70 46 58 59 49 39 32 29 11 357 350 338 332 335 333 335 322
159 159 156 159 155 159 161 163 153 157 154 158 166 169 158 147 130 113 79 100 107 88 85 73 96 85 81 90 51 47 46 40 30 12 356 336 335 342 340 346 327 340 324
158 158 164 165 165 161 162 168 166 162 166 165 173 165 159 175 190 163 151 140 135 129 99 70 58 59 71 65 66 56 59 43 32 2 349 339 340 340 335 341 331 334 331
163 165 168 163 161 156 153 147 164 166 176 180 173 162 175 175 183 178 165 155 139 130 77 123 153 195 189 110 51 26 52 17 12 336 318 324 336 337 330 333 335 334 330
172 162 161 161 161 160 156 153 149 165 161 165 165 169 169 184 183 175 167 172 149 110 110 174 206 204 212 217 215 204 258 311 310 279 300 322 327 319 328 329 336 334 331
169 165 164 166 165 159 159 158 156 154 156 148 163 168 182 188 186 184 179 128 133 69 169 196 213 208 211 219 206 209 243 268 266 280 299 311 305 307 322 329 330 321 324
163 163 161 161 162 156 150 150 144 143 154 133 130 93 350 184 193 195 192 151 190 218 210 221 216 206 210 214 218 217 227 250 251 280 274 274 291 293 301 310 314 315 316
160 158 154 153 147 145 145 149 147 152 150 159 162 179 156 87 177 191 148 168 196 221 217 224 217 218 216 213 215 214 226 233 242 246 263 273 280 264 288 300 308 318 319
151 150 152 144 157 155 155 166 165 162 169 180 194 186 186 174 198 196 200 206 213 219 218 217 217 220 214 214 214 213 225 247 240 245 251 260 265 279 267 282 291 296 294
150 151 157 161 146 154 166 159 166 172 174 184 195 217 217 185 193 207 215 219 217 220 213 208 218 214 204 200 201 208 221 233 236 234 248 250 249 259 275 284 298 303 306
147 145 140 144 151 140 144 157 166 176 183 192 178 194 206 201 202 211 219 221 216 222 211 209 222 227 217 218 213 209 212 224 220 199 228 246 257 266 261 280 298 309 311
145 150 156 157 156 162 165 173 183 184 182 186 188 197 204 209 214 223 225 226 220 226 215 210 214 221 220 218 216 215 223 232 210 210 206 231 255 258 261 266 279 279 286
151 156 162 166 169 174 170 174 181 186 191 191 195 199 207 212 221 228 228 222 225 222 227 213 217 222 224 222 222 218 219 235 214 198 193 209 234 248 246 260 277 296 289
160 165 167 161 169 172 179 178 188 188 194 198 201 204 208 212 224 226 222 217 223 226 226 219 221 222 221 226 228 225 217 218 220 214 199 202 219 237 234 247 265 275 285